sat.trackr.live / text

‹ back to catalog

KUIPER-00199

NORAD 67771 · 2026-030H

PAYLOAD ACTIVE UNKNOWN

§ Identity

Operator
Country
US
Launch date
2026-02-12
Launch site
FRGUI
Launch vehicle
Mass (kg)
RCS (m²)

External: N2YO · Heavens-Above · Gunter

§ Orbital elements

Epoch: 2026-09-20T22:00:03.000096Z

Period
95.24 min
Inclination
51.8913°
Eccentricity
0.0012339
Mean motion
15.12013112 rev/d
Perigee alt
521.5 km
Apogee alt
538.6 km
Semi-major
6,908.2 km
B*
-7.2884e-2
RAAN
358.3245°
Arg perigee
33.3541°
Mean anomaly
286.8298°
Rev number
583

§ Raw data

KUIPER-001991 67771U 26030H   26263.91670139 -.01169015  00000+0 -72884-1 0  99982 67771  51.8913 358.3245 0012339  33.3541 286.8298 15.12013112  5830

JSON: /api/v1/satellites/67771 · /tle

For live sub-satellite position, see the globe view (requires WebGL).

§ Visibility from observer

Set your observer location to see the next 7 days of passes ≥ 10°. The values pass through the URL so the page stays shareable.

No JS? Fill the form by hand. The geolocation button needs JavaScript.